Location: Unspecified
(38.7273°N, 77.0677°W)
Time: 21:31:10
(UTC-04:00)

CAS-4B - Pass Details

Date: 25 September 2021
Orbit: 528 x 541 km, 43.0° (Epoch: 24 October)

Event Time Altitude Azimuth Distance (km) Brightness Sun altitude
Exits shadow 06:07:31 13° 288° (WNW) 1,584 ? -10.8°
Maximum altitude 06:10:54 44° 359° (N) 739 ? -10.2°
Drops below altitude 10° 06:14:47 10° 72° (ENE) 1,770 ? -9.4°
Sets 06:17:05 0° 79° (E) 2,661 ? -9.0°
